METEOR 1-16

导读

METEOR 1-16是独联体(CIS继承自苏联)发射的第一代流星极轨气象卫星,属于苏联Meteor气象卫星系列,于1974年3月5日08时发射升空。流星1系列卫星1969-1977年间共发射25颗,该星轨道高度约900千米,主要承担全球气象观测任务,为气象预报、大气研究提供关键数据支撑,是早期苏联气象卫星网络的重要组成部分。

基本信息
目录编号:
7209
目录名称:
METEOR 1-16
国际标识:
1974-011A
轨道中心:
EARTH
卫星名称:
METEOR 1-16
卫星全名:
--
卫星状态:
在轨 (已飞行19092 天)
发射日期:
1974-03-05 UTC
国别 :
俄罗斯(独联体) (CIS)
星等 :
--
轨道信息
数据来源 国际轨道数据 AOE轨道数据
星历时间 2026-06-12T10:59:15+0800
17小时前
查看轨道信息
2026-06-09T00:00:00+0800
4天前
查看轨道信息
半长轴 7221.986km 7221.986km
偏心率 0.003956 0.0039667
轨道倾角 81.227° 81.228°
近地点辐角 57.272° 66.842°
升交点赤经 34.648° 38.046°
平近点角 303.226° 335.029°
近地点 815.278km 815.201km
远地点 872.42km 872.497km
周期 101.799分钟 101.799分钟
每日圈数 14.145484 14.145485
详细信息
使用方式:
暂无
2D轨道图
3D轨道图
轨道高度分析图
轨道倾角分析图
轨道综合分析图
查看轨道综合分析图